{"data":{"norad_id":62121,"intl_designator":"2024-222H","name":"STARLINK-32525","alt_names":[],"object_type":"PAYLOAD","status":"ACTIVE","operator":null,"country":"US","launch_date":"2024-11-27","launch_site_code":"AFETR","launch_vehicle":null,"mission":null,"orbit_class":"UNKNOWN","rcs_meters":null,"size_class":null,"mass_kg":null,"dimensions":null,"purposes":["comms"],"wikipedia_slug":null,"has_3d_model":false,"image_url":null,"decayed_at":null,"tle_current":{"epoch":"2026-05-25T04:49:35.910048Z","epoch_age_seconds":68051,"freshness":"FRESH","line1":"1 62121U 24222H   26145.20111007  .00035314  00000+0  12849-2 0  9995","line2":"2 62121  43.0000  63.8115 0000980 251.4521 108.6224 15.27626911 84467","mean_motion":15.27626911,"eccentricity":9.8e-5,"inclination_deg":43,"raan_deg":63.8115,"arg_perigee_deg":251.4521,"mean_anomaly_deg":108.6224,"bstar":0.0012849,"rev_number":8446,"period_min":94.263853931282,"perigee_km":482.2362487523,"apogee_km":483.58101369602,"semimajor_km":6861.0456312242,"source":"CELESTRAK","updated_at":"2026-05-25T13:38:19.563831Z"}}}